| 
				
				
				
					
						
					 | 
				
				
				
					
					
					Asteroid 2004 LO2
					
					
					
					
						
					
					
						
							(Preview)
						
						
						
						
							
						
							
								The 30 - 66 metre wide asteroid 2004 LO2 will make a close pass (9.9 lunar distances, 0.0254 AU), travelling at 15.29 km/second, to the Earth-Moon system on the 15th June, 2011 @ 13:38 UT ±03:35.   See more  The Lunar Distance (...              
							 
							
						 
						
					
				 | 
				
					
						Blobrana
					 | 
				
				
					
						1
					 | 
				
				
				
					
						
					 | 
				
				
					
						
					 | 
				
			
		
			
			
				
				
					
						 
					 | 
				
				
				
					
						
					 | 
				
				
				
					
					
					Asteroid (113) Amalthea
					
					
					
					
						
					
					
						
							(Preview)
						
						
						
						
							
						
							
								Asteroid (113) Amalthea is at opposition on the 31st July, 2011.  Magnitude=11.4  Distance to Sun=2.414 AU   Distance to Earth=1.399 AU    (113) Amalthea  is a fairly typical rocky main-belt asteroid orbiting in the inner regions of the belt. It was discovered by R. Luther on March 12, 1871. Amalthea i...                                 
							 
							
						 
						
					
				 | 
				
					
						Blobrana
					 | 
				
				
					
						2
					 | 
				
				
				
					
						
					 | 
				
				
					
						
					 | 
				
			
		
			
			
				
				
					
						 
					 | 
				
				
				
					
						
					 | 
				
				
				
					
					
					Asteroid 2005 TB15
					
					
					
					
						
					
					
						
							(Preview)
						
						
						
						
							
						
							
								The 360 - 800 metre wide asteroid 2005 TB15 will make a close pass (70.4 lunar distances, 0.1810 AU), travelling at 19.44 km/second, to the Earth-Moon system on the 12th November, 2010 @ 11:57 UT.  See more  The Lunar Distan...               
							 
							
						 
						
					
				 | 
				
					
						Blobrana
					 | 
				
				
					
						1
					 | 
				
				
				
					
						
					 | 
				
				
					
						
					 | 
				
			
		
			
			
				
				
					
						 
					 | 
				
				
				
					
						
					 | 
				
				
				
					
					
					Asteroid 2011 VH5
					
					
					
					
						
					
					
						
							(Preview)
						
						
						
						
							
						
							
								Orbital elements:
2011 VH5                                                 Earth MOID = 0.1221 AU
Epoch 2011 Aug. 27.0 TT = JDT 2455800.5                 MPC
M 232.59804              (2000.0)            P               Q
n   0.64317987     Peri.  160.47898     -0.98782718     -0.15324200
a   1.3291717      Node    10.81075     +0.11692826     -0.84480909
e   0.4260835      Incl.    8.19232     +0.10259263     -0.51265436
P   1.53           H   21.2           G   0... 
							 
							
						 
						
					
				 | 
				
					
						Blobrana
					 | 
				
				
					
						2
					 | 
				
				
				
					
						
					 | 
				
				
					
						
					 | 
				
			
		
			
			
				
				
					
						 
					 | 
				
				
				
					
						
					 | 
				
				
				
					
					
					Asteroid 2003 QC10
					
					
					
					
						
					
					
						
							(Preview)
						
						
						
						
							
						
							
								The 710 - 1600 metre wide asteroid 2003 QC10 will make a close pass (50.0 lunar distances, 0.1284 AU), travelling at 27.87 km/second, to the Earth-Moon system on the 18th September, 2011 @ 23:54 UT ±00:01.   See more  The Lunar Distance (LD), the distance between Earth and the Moon, equals 384,401 km, (o...   
							 
							
						 
						
					
				 | 
				
					
						Blobrana
					 | 
				
				
					
						1
					 | 
				
				
				
					
						
					 | 
				
				
					
						
					 | 
				
			
		
			
			
				
				
					
						 
					 | 
				
				
				
					
						
					 | 
				
				
				
					
					
					Asteroid 2011 KB
					
					
					
					
						
					
					
						
							(Preview)
						
						
						
						
							
						
							
								Orbital elements:
2011 KB                                                  Earth MOID = 0.0062 AU
Epoch 2011 Aug. 27.0 TT = JDT 2455800.5                 MPC
M 245.63442              (2000.0)            P               Q
n   1.26946361     Peri.  216.61101     -0.00501290     -0.99768929
a   0.8447390      Node   233.77362     +0.93624415     +0.01912186
e   0.3643779      Incl.    4.81815     +0.35131434     -0.06519533
P   0.78           H   25.0           G   0... 
							 
							
						 
						
					
				 | 
				
					
						Blobrana
					 | 
				
				
					
						3
					 | 
				
				
				
					
						
					 | 
				
				
					
						
					 | 
				
			
		
			
			
				
				
					
						 
					 | 
				
				
				
					
						 
					 | 
				
				
				
					
					
					Asteroid 2011 HJ7
					
					
					
					
						
					
					
						
							(Preview)
						
						
						
						
							
						
							
								Orbital elements:
2011 HJ7                                            PHA, Earth MOID = 0.0060 AU
Epoch 2011 Feb. 8.0 TT = JDT 2455600.5                  MPC
M 241.69518              (2000.0)            P               Q
n   0.70166540     Peri.  297.75598     +0.88158524     +0.47189164
a   1.2542459      Node    34.09025     -0.42572739     +0.80515287
e   0.5208427      Incl.    1.14633     -0.20387165     +0.35923131
P   1.40           H   22.... 
							 
							
						 
						
					
				 | 
				
					
						Blobrana
					 | 
				
				
					
						2
					 | 
				
				
				
					
						
					 | 
				
				
					
						
					 | 
				
			
		
			
			
				
				
					
						 
					 | 
				
				
				
					
						
					 | 
				
				
				
					
					
					Asteroid (103) Hera
					
					
					
					
						
					
					
						
							(Preview)
						
						
						
						
							
						
							
								Asteroid (103) Hera is a large main-belt asteroid. It has a silicate surface composition. It was discovered by J. C. Watson on September 7, 1868, and named after Hera, queen of the gods in Greek mythology. Read more  EphemerisDate       UT      R.A. (J2... 
							 
							
						 
						
					
				 | 
				
					
						Blobrana
					 | 
				
				
					
						7
					 | 
				
				
				
					
						
					 | 
				
				
					
						
					 | 
				
			
		
			
			
				
				
					
						 
					 | 
				
				
				
					
						
					 | 
				
				
				
					
					
					Asteroid (243) Ida I Dactyl
					
					
					
					
						
					
					
						
							(Preview)
						
						
						
						
							
						
							
								(243) Ida I Dactyl, was discovered in images taken by the Galileo spacecraft during its flyby in 1993. These images provided the first direct confirmation of an asteroid moon. At the time, it was separated from Ida by a distance of 90 kilometres, moving in a prograde orbit. Dactyl's surface is heavil... 
							 
							
						 
						
					
				 | 
				
					
						Blobrana
					 | 
				
				
					
						3
					 | 
				
				
				
					
						
					 | 
				
				
					
						
					 | 
				
			
		
			
			
				
				
					
						 
					 | 
				
				
				
					
						
					 | 
				
				
				
					
					
					Kuiper Belt Object 90568 (2004 GV9)
					
					
					
					
						
					
					
						
							(Preview)
						
						
						
						
							
						
							
								Kuiper Belt Object 90568 (2004 GV9) is at opposition (38.232 AU) on the 30th April, 2011. 
							 
							
						 
						
					
				 | 
				
					
						Blobrana
					 | 
				
				
					
						7
					 | 
				
				
				
					
						
					 | 
				
				
					
						
					 | 
				
			
		
			
			
				
				
					
						 
					 | 
				
				
				
					
						
					 | 
				
				
				
					
					
					Asteroid 2005 JU81
					
					
					
					
						
					
					
						
							(Preview)
						
						
						
						
							
						
							
								The 110 - 250 metre wide asteroid 2005 JU81 will make a close pass (14.6 lunar distances, 0.0376 AU), travelling at 11.53 km/second, to the Earth-Moon system on the 17th November, 2010 @ 04:14 UT.   See more  The Lunar Distan...               
							 
							
						 
						
					
				 | 
				
					
						Blobrana
					 | 
				
				
					
						1
					 | 
				
				
				
					
						
					 | 
				
				
					
						
					 | 
				
			
		
			
			
				
				
					
						 
					 | 
				
				
				
					
						
					 | 
				
				
				
					
					
					Asteroid (39) Laetitia
					
					
					
					
						
					
					
						
							(Preview)
						
						
						
						
							
						
							
								Asteroid (39) Laetitia is a large, bright main-belt asteroid. Laetitia was discovered by J. Chacornac on February 8, 1856, and named after Laetitia, a minor Roman goddess of gaiety. Read more  EphemerisDate       UT      R.A. (J2000) Decl.    Delta... 
							 
							
						 
						
					
				 | 
				
					
						Blobrana
					 | 
				
				
					
						6
					 | 
				
				
				
					
						
					 | 
				
				
					
						
					 | 
				
			
		
			
			
				
				
					
						 
					 | 
				
				
				
					
						
					 | 
				
				
				
					
					
					Asteroid 2002 JR100
					
					
					
					
						
					
					
						
							(Preview)
						
						
						
						
							
						
							
								The 38 - 84 metre wide asteroid 2002 JR100 will make a close pass (19.8 lunar distances, 0.0509 AU), travelling at 7.87 km/second, to the Earth-Moon system on the 28th August, 2011 @ 11:44 UT ±00:01.   See more  The Lunar Distance (LD), the distance between Earth and the Moon, equals 384,401 km, (or 0.002...  
							 
							
						 
						
					
				 | 
				
					
						Blobrana
					 | 
				
				
					
						1
					 | 
				
				
				
					
						
					 | 
				
				
					
						
					 | 
				
			
		
			
			
				
				
					
						 
					 | 
				
				
				
					
						
					 | 
				
				
				
					
					
					Asteroid 2011 EH17
					
					
					
					
						
					
					
						
							(Preview)
						
						
						
						
							
						
							
								Orbital elements: 2011 EH17                                                Earth MOID = 0.0071 AU Epoch 2011 Feb. 8.0 TT = JDT 2455600.5                  MPC M  60.78981              (2000.0)            P               Q n   1.57485159     Peri.   35.89835     +0.98672613     -0.16068109 a   0.7316605      Node   333.31910     +0.13408777     +0.88784629 e   0.6567948      Incl.    3.00239     +0.09160792     +0.43117346 P   0.63           H   24.7           G   0.15           U   9 MPE...    
							 
							
						 
						
					
				 | 
				
					
						Blobrana
					 | 
				
				
					
						2
					 | 
				
				
				
					
						
					 | 
				
				
					
						
					 | 
				
			
		
			
			
				
				
					
						 
					 | 
				
				
				
					
						
					 | 
				
				
				
					
					
					Asteroid (187) Lamberta
					
					
					
					
						
					
					
						
							(Preview)
						
						
						
						
							
						
							
								The magnitude 13.3 asteroid (187) Lamberta will occult the magnitude 6.2 star HD 360 in the constellation Cetus, at 05:54 UT, 22nd July, 2010. The 98.8 second event is visible from Antarctica.  Position (2000): RA 00 08 17.5325, Dec -08 49 26.804 187 Lamberta is a main-belt asteroid that was discover... 
							 
							
						 
						
					
				 | 
				
					
						Blobrana
					 | 
				
				
					
						1
					 | 
				
				
				
					
						
					 | 
				
				
					
						
					 |